Wind_Speed
94 93 94 93 87 91 91 85 86 73 63 66 67 59 46 55 45 57 60 53 53 45 47 54 54 48 49 46 53 50 52 56 52 62 58 62 63 58 56 55 51 51 57
96 94 94 93 91 91 96 94 92 87 78 68 64 66 63 64 70 66 64 61 64 62 62 57 60 55 50 52 54 59 61 63 61 61 71 68 70 73 61 60 61 55 49
100 96 93 93 92 92 101 97 96 93 76 69 66 71 68 69 66 65 63 62 60 65 62 62 60 60 57 58 59 67 65 65 68 55 56 71 84 82 76 71 66 60 62
98 97 94 94 92 94 97 103 98 99 94 78 74 72 75 75 73 67 66 69 64 64 64 65 66 66 62 62 68 71 72 70 66 63 74 81 82 85 84 78 70 72 77
95 98 98 96 94 94 97 101 102 102 100 96 88 83 75 78 79 75 66 67 68 68 70 72 71 72 70 71 74 76 80 77 76 79 82 81 82 77 79 79 79 79 81
90 95 98 99 97 96 98 97 103 102 103 98 98 91 85 83 82 84 76 74 75 75 75 75 73 73 70 68 70 75 80 84 81 84 84 83 85 86 87 87 83 86 86
78 89 96 102 99 96 95 97 99 101 101 103 100 88 92 91 86 81 81 81 78 78 77 82 84 80 80 77 78 81 83 85 90 94 95 96 95 99 98 98 94 95 98
66 78 89 97 98 95 96 97 100 102 100 98 99 100 97 93 91 84 84 86 83 80 80 80 84 86 87 86 87 87 88 89 92 97 100 102 105 105 108 109 113 114 111
56 69 83 91 97 96 94 98 99 99 101 100 98 98 98 97 93 93 89 84 80 84 89 88 88 93 95 94 92 94 96 101 102 104 107 110 115 117 120 123 126 127 127
51 65 82 88 94 97 96 94 102 102 101 101 99 97 98 98 99 98 94 94 94 92 90 96 95 94 100 103 103 104 107 109 111 114 115 118 121 124 126 130 133 135 138
46 60 72 84 91 101 97 96 98 99 97 101 98 96 97 98 99 100 99 100 98 99 100 97 102 103 103 105 110 110 111 115 117 118 121 124 128 133 136 140 143 146 146
38 49 65 78 87 90 89 93 95 93 96 95 96 98 99 99 100 99 98 99 100 100 102 106 107 107 109 114 115 115 118 121 123 125 129 132 135 141 144 146 149 152 154
32 44 61 80 91 89 89 91 90 91 92 90 91 93 95 98 98 98 98 98 99 101 102 106 109 115 118 120 122 124 127 130 132 136 139 140 142 146 148 151 157 160 164
26 41 56 72 81 87 84 84 85 87 86 86 88 88 89 93 94 92 89 89 91 95 98 102 104 105 108 113 116 119 124 127 130 134 138 141 141 141 140 139 137 143 146
19 29 43 59 70 74 74 77 80 81 81 81 81 84 85 87 87 84 79 78 79 81 86 90 94 95 97 99 100 102 105 108 110 113 115 117 117 113 107 104 105 106 108
14 22 31 41 52 61 66 69 72 74 76 77 77 77 78 80 80 78 81 84 83 72 64 62 63 65 67 69 71 70 68 69 70 72 76 78 79 82 85 87 89 92 93
9 11 17 25 34 43 50 56 62 66 69 72 74 76 75 75 77 74 64 59 52 46 42 41 43 46 46 47 51 53 55 55 55 57 62 67 69 70 75 80 85 89 91
8 10 10 12 16 21 28 36 43 49 53 56 54 51 47 42 36 30 29 31 31 30 31 31 32 35 38 40 43 46 48 53 57 60 63 65 68 71 74 76 77 79 83
11 11 11 10 10 10 11 12 14 16 17 17 15 15 17 20 18 18 18 19 24 26 27 27 30 35 37 38 39 42 44 46 50 53 54 57 61 63 64 67 71 74 76
10 10 10 8 7 6 5 4 4 3 2 3 5 7 8 8 9 12 15 19 21 23 25 25 27 27 28 32 36 41 45 47 49 52 55 57 59 62 65 68 69 71 72
19 19 21 20 17 14 12 11 11 7 4 3 3 4 5 8 11 13 17 20 22 27 32 33 35 36 39 44 46 50 55 55 57 63 65 68 69 69 71 72 72 72 73
22 22 22 19 17 15 13 12 11 9 5 5 8 12 15 15 16 19 21 23 27 30 31 34 38 41 43 47 48 51 56 59 65 68 68 71 73 76 78 77 76 74 73
21 20 19 18 19 19 17 16 16 15 15 14 16 17 17 19 21 23 25 27 29 34 36 39 44 45 49 50 53 57 60 64 66 71 75 76 74 79 85 85 83 79 77
22 22 23 25 24 24 22 23 20 18 18 18 18 19 20 21 23 26 29 30 32 35 38 41 45 47 49 53 57 60 62 65 70 74 77 78 81 83 88 90 87 85 82
22 19 18 18 16 16 20 20 15 14 15 14 15 19 22 25 28 29 29 33 37 39 41 45 48 52 56 56 60 62 67 72 75 79 83 84 85 88 89 92 92 90 87
12 14 14 11 10 11 14 15 15 15 15 17 18 20 23 27 28 32 35 38 41 42 45 50 52 56 60 64 65 69 72 74 79 81 87 88 87 92 93 95 96 96 93
Wind_Direction
234 233 232 231 227 223 220 218 218 224 233 231 233 234 239 245 238 247 245 251 250 254 258 257 259 263 265 265 271 274 275 281 279 287 284 282 286 282 278 273 273 276 278
233 230 230 229 226 224 219 219 219 221 230 229 229 225 222 234 235 240 246 249 251 254 256 258 258 257 262 270 270 278 276 276 280 285 283 281 281 281 282 274 272 269 271
233 228 226 227 225 224 221 220 220 223 224 227 228 227 227 233 236 238 242 242 242 247 250 255 256 261 261 265 271 275 274 274 278 286 275 266 280 281 281 281 279 278 271
231 229 224 224 224 223 223 220 220 222 224 224 229 232 232 233 235 236 239 243 241 242 247 251 257 258 261 264 271 267 272 276 278 272 266 276 277 278 282 282 285 277 281
227 225 223 220 221 222 224 223 223 225 226 226 228 233 234 235 239 240 241 239 242 245 249 253 254 259 263 265 265 261 266 269 269 271 276 279 278 273 273 275 276 274 274
226 222 219 218 218 220 224 225 226 227 228 228 232 231 235 237 240 243 246 241 246 245 249 251 253 256 262 264 265 265 266 267 271 271 273 274 275 275 276 277 272 275 274
224 221 216 215 215 217 222 225 228 229 230 231 232 235 236 236 239 242 242 244 243 247 252 252 253 254 258 259 264 270 271 270 269 271 275 277 274 275 277 280 275 275 275
220 217 216 214 213 214 219 224 227 230 232 233 233 234 237 239 239 240 243 244 245 247 250 252 254 254 258 261 260 264 266 267 268 269 270 271 273 273 275 277 278 278 279
215 213 212 210 210 213 217 222 226 230 232 234 235 236 238 240 242 241 241 243 247 250 251 253 256 255 257 259 261 263 266 267 269 270 273 273 273 274 276 277 277 278 278
207 206 207 208 208 211 215 221 224 227 231 234 237 238 239 242 243 244 245 244 245 248 252 253 256 256 255 256 258 260 262 264 265 268 269 270 272 274 275 275 278 279 278
208 206 205 202 207 211 214 220 228 228 232 236 237 241 243 244 246 248 250 249 251 252 254 253 254 256 257 258 257 259 261 263 264 268 271 273 275 275 276 277 278 279 282
207 205 201 202 211 217 214 221 227 232 234 236 240 242 245 248 251 252 254 256 255 256 257 257 257 256 258 259 260 262 264 266 266 268 269 271 272 275 278 282 280 282 284
196 205 199 204 213 213 217 221 226 231 236 239 242 245 248 251 253 254 256 259 261 262 263 262 260 262 262 263 262 263 265 267 268 269 271 272 275 278 279 279 282 284 283
201 197 202 208 214 221 219 224 229 233 238 242 246 250 253 255 257 259 261 263 264 265 266 267 267 267 266 267 268 269 271 272 273 274 275 276 278 278 281 284 283 283 286
191 201 206 211 218 224 226 227 231 236 241 246 250 254 258 262 266 270 270 269 270 271 272 272 272 272 273 274 274 275 276 276 277 278 278 279 281 284 285 285 286 286 287
179 193 203 213 218 223 229 232 236 240 244 248 253 257 261 265 269 274 279 281 283 283 280 277 276 275 274 275 277 281 282 283 283 283 284 287 288 288 288 289 289 291 294
142 173 196 206 214 222 228 232 236 241 246 250 255 260 265 270 273 276 275 275 276 281 288 292 288 288 289 289 291 291 292 292 292 293 293 293 295 299 301 302 302 301 301
135 149 164 191 209 222 230 234 238 243 247 252 258 261 262 264 268 277 287 295 296 294 298 301 303 301 299 299 301 306 307 308 308 308 307 306 306 305 304 304 303 303 303
108 119 130 144 160 180 195 209 218 223 230 239 253 276 288 287 283 286 292 300 308 311 315 316 314 315 315 314 313 316 321 324 322 320 318 315 314 313 311 311 311 311 311
113 115 112 111 117 131 137 145 165 183 220 239 261 261 275 289 315 328 324 323 326 333 340 346 353 350 346 347 347 347 346 342 338 336 336 331 324 322 322 322 320 320 318
112 114 114 106 104 111 112 118 125 131 134 97 62 19 354 337 346 7 32 31 25 13 10 8 6 0 357 353 351 350 349 346 345 345 344 341 336 333 333 331 328 326 324
85 87 80 77 78 80 84 87 89 88 85 78 62 66 65 53 45 36 27 17 9 6 3 1 357 354 351 350 348 347 348 348 347 344 343 344 344 343 340 336 333 331 330
80 80 80 80 83 84 82 81 82 82 78 78 69 53 44 33 24 16 9 3 3 3 0 356 356 352 352 351 348 346 346 346 345 346 346 346 343 343 344 340 338 336 334
95 99 101 101 87 73 64 65 70 70 70 60 52 43 32 18 12 8 5 2 0 356 355 355 353 354 353 350 350 350 348 347 348 347 345 344 344 344 344 343 341 338 337
84 86 86 86 81 70 57 57 58 50 43 35 33 21 11 4 1 358 353 351 350 350 352 353 353 352 349 347 346 348 348 346 346 345 345 344 344 343 344 344 343 341 339
76 69 73 72 59 55 39 34 27 24 20 13 5 357 354 351 351 351 351 347 347 345 345 347 347 345 344 345 345 343 344 344 344 344 345 346 347 346 344 344 343 341 340
Height
10519 10533 10545 10559 10575 10590 10601 10610 10614 10621 10626 10635 10643 10650 10658 10656 10657 10654 10656 10661 10665 10669 10669 10668 10669 10670 10670 10669 10670 10672 10673 10674 10673 10663 10667 10667 10666 10666 10663 10662 10661 10658 10655
10489 10504 10519 10534 10550 10564 10576 10589 10596 10604 10611 10618 10625 10631 10636 10637 10638 10641 10647 10651 10653 10656 10657 10657 10659 10658 10658 10659 10657 10658 10660 10658 10660 10659 10651 10650 10650 10648 10649 10647 10647 10645 10643
10459 10477 10495 10510 10526 10541 10553 10566 10577 10586 10594 10602 10608 10614 10619 10621 10627 10633 10636 10639 10641 10643 10645 10646 10648 10647 10649 10650 10648 10645 10644 10643 10642 10651 10633 10634 10630 10629 10629 10631 10630 10629 10627
10432 10452 10470 10486 10504 10519 10532 10544 10558 10566 10576 10586 10591 10597 10605 10609 10611 10617 10622 10627 10628 10630 10634 10635 10636 10635 10638 10638 10638 10634 10629 10628 10626 10621 10620 10618 10617 10612 10612 10614 10615 10613 10614
10400 10421 10444 10464 10482 10499 10509 10526 10539 10547 10556 10567 10574 10581 10591 10595 10599 10604 10611 10615 10618 10620 10623 10623 10625 10623 10624 10625 10622 10618 10614 10612 10613 10606 10601 10599 10594 10591 10590 10595 10597 10598 10593
10375 10395 10417 10440 10460 10477 10491 10508 10516 10530 10539 10551 10557 10569 10576 10581 10583 10591 10596 10601 10604 10605 10607 10610 10610 10610 10605 10605 10604 10603 10599 10595 10596 10591 10585 10582 10578 10574 10571 10569 10570 10572 10573
10355 10373 10395 10416 10439 10461 10478 10489 10501 10512 10522 10528 10545 10561 10559 10558 10567 10575 10582 10586 10588 10590 10594 10593 10596 10595 10594 10591 10589 10587 10585 10581 10578 10571 10569 10564 10560 10553 10550 10548 10544 10547 10548
10341 10360 10385 10402 10428 10448 10462 10474 10483 10490 10506 10520 10529 10533 10536 10545 10555 10561 10563 10566 10572 10577 10578 10579 10580 10580 10579 10575 10575 10571 10565 10562 10559 10556 10550 10546 10539 10536 10528 10524 10521 10520 10519
10333 10350 10370 10395 10416 10434 10448 10457 10468 10480 10490 10499 10511 10519 10523 10531 10535 10542 10547 10551 10559 10562 10562 10562 10562 10561 10559 10558 10558 10552 10547 10541 10535 10531 10527 10522 10515 10510 10507 10501 10490 10486 10488
10327 10342 10356 10381 10404 10417 10431 10446 10448 10460 10475 10483 10495 10506 10510 10515 10519 10526 10531 10538 10544 10547 10547 10544 10543 10543 10540 10537 10534 10531 10525 10520 10513 10506 10503 10497 10491 10485 10478 10468 10465 10459 10449
10326 10342 10358 10378 10390 10397 10419 10431 10436 10453 10465 10472 10486 10494 10496 10500 10505 10512 10516 10521 10526 10529 10528 10524 10523 10521 10519 10515 10512 10509 10504 10498 10491 10486 10480 10472 10465 10456 10447 10440 10430 10421 10415
10331 10348 10364 10378 10386 10398 10415 10422 10430 10442 10453 10465 10471 10476 10482 10487 10490 10496 10502 10504 10507 10508 10510 10506 10502 10499 10496 10493 10490 10487 10482 10477 10470 10464 10456 10449 10439 10429 10422 10415 10399 10386 10376
10338 10349 10364 10366 10370 10389 10402 10415 10425 10434 10440 10451 10458 10465 10470 10471 10474 10479 10483 10486 10488 10487 10487 10485 10481 10477 10472 10469 10466 10464 10459 10454 10447 10437 10429 10421 10412 10407 10395 10385 10378 10358 10344
10338 10350 10360 10368 10374 10383 10403 10412 10420 10428 10435 10442 10446 10452 10455 10455 10457 10462 10468 10470 10469 10467 10463 10458 10455 10452 10447 10445 10441 10438 10432 10428 10422 10415 10408 10397 10388 10377 10368 10360 10345 10330 10320
10340 10348 10358 10367 10375 10384 10397 10407 10415 10421 10428 10434 10437 10439 10441 10442 10444 10445 10448 10449 10447 10444 10438 10432 10428 10426 10423 10419 10415 10409 10405 10398 10392 10386 10378 10369 10360 10351 10339 10326 10316 10303 10292
10342 10349 10356 10364 10372 10381 10390 10399 10407 10413 10418 10422 10425 10428 10430 10429 10429 10430 10427 10423 10420 10415 10412 10408 10404 10402 10400 10397 10393 10386 10379 10373 10365 10359 10352 10345 10336 10327 10317 10305 10293 10280 10268
10344 10348 10354 10360 10367 10375 10383 10390 10397 10403 10408 10412 10414 10415 10416 10416 10417 10414 10409 10407 10405 10400 10396 10391 10388 10385 10381 10377 10374 10369 10364 10358 10351 10344 10337 10328 10318 10307 10293 10281 10269 10256 10240
10351 10354 10357 10362 10367 10372 10378 10384 10389 10394 10398 10401 10404 10405 10404 10403 10402 10400 10398 10395 10392 10390 10387 10383 10379 10375 10371 10366 10362 10356 10349 10342 10334 10327 10318 10308 10297 10286 10275 10263 10250 10235 10221
10357 10359 10361 10364 10368 10371 10375 10379 10383 10386 10389 10392 10394 10394 10394 10394 10394 10392 10390 10388 10385 10382 10379 10374 10369 10366 10361 10356 10351 10345 10338 10330 10322 10314 10305 10294 10284 10272 10259 10247 10233 10218 10202
10358 10360 10362 10364 10367 10370 10374 10376 10379 10382 10385 10387 10389 10390 10390 10390 10388 10385 10384 10382 10380 10376 10372 10368 10364 10358 10352 10347 10342 10335 10327 10319 10311 10302 10293 10282 10270 10258 10245 10230 10216 10201 10184
10364 10366 10368 10370 10372 10375 10376 10378 10380 10383 10385 10385 10385 10385 10385 10384 10383 10381 10380 10378 10374 10370 10365 10360 10355 10350 10345 10339 10332 10325 10317 10309 10301 10290 10279 10268 10256 10242 10229 10215 10200 10184 10168
10369 10369 10370 10372 10374 10376 10378 10380 10381 10382 10382 10382 10383 10383 10382 10381 10379 10377 10375 10372 10369 10365 10360 10355 10350 10344 10337 10331 10323 10317 10309 10300 10290 10280 10268 10255 10242 10229 10215 10200 10185 10169 10153
10372 10373 10374 10376 10378 10379 10380 10380 10381 10381 10380 10380 10379 10379 10379 10378 10376 10373 10370 10367 10363 10358 10353 10348 10342 10336 10330 10323 10316 10309 10300 10290 10280 10268 10255 10242 10229 10216 10201 10184 10168 10152 10136
10376 10377 10378 10379 10380 10381 10382 10382 10381 10380 10380 10379 10379 10378 10377 10374 10371 10368 10365 10361 10357 10352 10346 10341 10335 10329 10322 10314 10306 10298 10288 10279 10268 10256 10243 10230 10216 10201 10187 10170 10153 10135 10120
10380 10380 10381 10381 10382 10382 10382 10381 10381 10380 10378 10377 10376 10373 10371 10368 10366 10362 10358 10353 10349 10343 10338 10333 10327 10320 10312 10304 10296 10286 10276 10265 10255 10243 10230 10216 10203 10189 10174 10157 10140 10123 10105
10381 10382 10382 10381 10380 10380 10379 10378 10377 10376 10374 10372 10370 10367 10365 10362 10358 10354 10350 10345 10340 10335 10329 10323 10317 10309 10301 10292 10283 10274 10263 10253 10242 10229 10217 10203 10189 10175 10160 10144 10127 10109 10093